Weather History for Buckeye, AZ

Change the Weather History Date:

Tuesday, September 17, 2013

  Actual Average (KGYR) Record (KGYR)
Temperature  
Mean Temperature 94 °F -  
Max Temperature 104 °F 97 °F 107 °F (2002)
Min Temperature 84 °F 71 °F 57 °F (2006)
Cooling Degree Days 29    
Growing Degree Days 44 (Base 50)    
Moisture  
Dew Point 55 °F    
Average Humidity 27    
Maximum Humidity 36    
Minimum Humidity 17    
Precipitation  
Precipitation 0.00 in - - ()
Sea Level Pressure  
Sea Level Pressure 29.68 in    
Wind  
Wind Speed 13 mph (East)    
Max Wind Speed 22 mph    
Max Gust Speed 29 mph    
Visibility 10 miles    
Events      
Averages and records for this station are not official NWS values.
T = Trace of Precipitation, MM = Missing Value Source: NWS Daily Summary

Daily Weather History Graph

Daily Weather History Graph

Search for Another Location

Airport:

Trip Planner

Search our weather history database for the weather conditions in past years. The results will help you decide how hot, cold, wet, or windy it might be!

Date:

Astronomy

Sep. 17, 2013 Rise Set
Actual Time 6:15 AM MST 6:33 PM MST
Civil Twilight 5:50 AM MST 6:58 PM MST
Nautical Twilight 5:21 AM MST 7:27 PM MST
Astronomical Twilight 4:52 AM MST 7:57 PM MST
Moon 5:21 PM MST (9/17) 4:18 AM MST (9/17)
Length of Visible Light 13h 07m
Length of Day
12h 18m
Waxing Gibbous, 96% of the Moon is Illuminated
Sep 17
Waxing Gibbous
Sep 19
Full
Sep 26
Last Quarter
Oct 4
New
Oct 11
First Quarter

Hourly Weather History & Observations

Time (MST) Temp. Heat Index Dew Point Humidity Pressure Visibility Wind Dir Wind Speed Gust Speed Precip Events Conditions
12:15 AM 93.2 °F 91.3 °F 55.4 °F 28% 29.73 in 10.0 mi ENE 13.8 mph - N/A   Partly Cloudy
12:35 AM 91.4 °F 89.4 °F 55.4 °F 29% 29.73 in 10.0 mi ENE 12.7 mph - N/A   Clear
12:55 AM 91.4 °F 89.4 °F 55.4 °F 29% 29.73 in 10.0 mi East 10.4 mph - N/A   Clear
1:15 AM 91.4 °F 89.9 °F 57.2 °F 31% 29.73 in 10.0 mi East 13.8 mph - N/A   Clear
1:35 AM 91.4 °F 89.9 °F 57.2 °F 31% 29.73 in 10.0 mi East 15.0 mph - N/A   Clear
1:55 AM 91.4 °F 89.9 °F 57.2 °F 31% 29.72 in 10.0 mi ENE 17.3 mph - N/A   Clear
2:15 AM 91.4 °F 89.9 °F 57.2 °F 31% 29.72 in 10.0 mi ENE 17.3 mph - N/A   Clear
2:35 AM 91.4 °F 89.9 °F 57.2 °F 31% 29.71 in 10.0 mi East 15.0 mph 23.0 mph N/A   Clear
2:55 AM 91.4 °F 89.9 °F 57.2 °F 31% 29.71 in 10.0 mi East 15.0 mph - N/A   Clear
3:15 AM 89.6 °F 88.1 °F 57.2 °F 33% 29.71 in 10.0 mi East 16.1 mph - N/A   Clear
3:35 AM 89.6 °F 88.1 °F 57.2 °F 33% 29.71 in 10.0 mi East 12.7 mph - N/A   Clear
3:55 AM 89.6 °F 88.1 °F 57.2 °F 33% 29.71 in 10.0 mi East 12.7 mph 19.6 mph N/A   Clear
4:15 AM 89.6 °F 88.1 °F 57.2 °F 33% 29.71 in 10.0 mi ENE 16.1 mph - N/A   Clear
4:35 AM 89.6 °F 88.1 °F 57.2 °F 33% 29.71 in 10.0 mi ENE 16.1 mph 23.0 mph N/A   Clear
4:55 AM 89.6 °F 88.1 °F 57.2 °F 33% 29.71 in 10.0 mi ENE 19.6 mph - N/A   Clear
5:15 AM 89.6 °F 88.1 °F 57.2 °F 33% 29.71 in 10.0 mi East 18.4 mph 24.2 mph N/A   Clear
5:35 AM 89.6 °F 88.1 °F 57.2 °F 33% 29.72 in 10.0 mi ENE 18.4 mph 23.0 mph N/A   Clear
5:55 AM 89.6 °F 88.1 °F 57.2 °F 33% 29.72 in 10.0 mi ENE 17.3 mph 23.0 mph N/A   Clear
6:15 AM 87.8 °F 86.5 °F 57.2 °F 35% 29.73 in 10.0 mi ENE 15.0 mph - N/A   Clear
6:35 AM 87.8 °F 86.5 °F 57.2 °F 35% 29.74 in 10.0 mi ENE 15.0 mph - N/A   Clear
6:55 AM 89.6 °F 88.1 °F 57.2 °F 33% 29.74 in 10.0 mi ENE 17.3 mph 20.7 mph N/A   Clear
7:15 AM 89.6 °F 88.9 °F 59.0 °F 36% 29.75 in 10.0 mi ENE 16.1 mph 20.7 mph N/A   Clear
7:35 AM 89.6 °F 88.1 °F 57.2 °F 33% 29.75 in 10.0 mi ENE 18.4 mph 24.2 mph N/A   Clear
7:55 AM 91.4 °F 89.9 °F 57.2 °F 31% 29.76 in 10.0 mi East 17.3 mph 24.2 mph N/A   Clear
8:15 AM 91.4 °F 89.9 °F 57.2 °F 31% 29.75 in 10.0 mi East 21.9 mph 27.6 mph N/A   Clear
8:35 AM 91.4 °F 90.7 °F 59.0 °F 34% 29.76 in 10.0 mi East 20.7 mph 26.5 mph N/A   Clear
8:55 AM 93.2 °F 92.6 °F 59.0 °F 32% 29.76 in 10.0 mi East 21.9 mph 27.6 mph N/A   Clear
9:15 AM 93.2 °F 92.6 °F 59.0 °F 32% 29.76 in 10.0 mi East 21.9 mph 28.8 mph N/A   Clear
9:35 AM 95.0 °F 94.4 °F 59.0 °F 30% 29.76 in 10.0 mi East 21.9 mph 25.3 mph N/A   Clear
9:55 AM 95.0 °F 94.4 °F 59.0 °F 30% 29.76 in 10.0 mi East 19.6 mph 25.3 mph N/A   Clear
10:15 AM 95.0 °F 94.4 °F 59.0 °F 30% 29.76 in 10.0 mi East 18.4 mph 23.0 mph N/A   Clear
10:35 AM 96.8 °F 96.2 °F 59.0 °F 28% 29.75 in 10.0 mi East 17.3 mph - N/A   Clear
10:55 AM 96.8 °F 96.2 °F 59.0 °F 28% 29.75 in 10.0 mi East 17.3 mph 20.7 mph N/A   Clear
11:15 AM 98.6 °F 98.5 °F 59.0 °F 27% 29.74 in 10.0 mi East 15.0 mph - N/A   Clear
11:35 AM 98.6 °F 98.5 °F 59.0 °F 27% 29.72 in 10.0 mi East 15.0 mph 20.7 mph N/A   Clear
11:55 AM 100.4 °F 99.7 °F 57.2 °F 24% 29.72 in 9.0 mi East 13.8 mph 21.9 mph N/A   Clear
12:15 PM 100.4 °F 100.2 °F 59.0 °F 25% 29.71 in 9.0 mi ESE 13.8 mph - N/A   Clear
12:35 PM 100.4 °F 100.2 °F 59.0 °F 25% 29.70 in 8.0 mi ESE 12.7 mph 17.3 mph N/A   Clear
12:55 PM 102.2 °F 102.4 °F 59.0 °F 24% 29.68 in 9.0 mi East 13.8 mph 17.3 mph N/A   Clear
1:15 PM 102.2 °F 101.4 °F 57.2 °F 22% 29.67 in 8.0 mi ESE 11.5 mph - N/A   Clear
1:35 PM 102.2 °F 101.4 °F 57.2 °F 22% 29.67 in 8.0 mi East 9.2 mph - N/A   Clear
1:55 PM 102.2 °F 101.4 °F 57.2 °F 22% 29.66 in 9.0 mi ESE 8.1 mph - N/A   Clear
2:15 PM 102.2 °F 100.9 °F 55.4 °F 21% 29.65 in 9.0 mi East 5.8 mph - N/A   Clear
2:35 PM 104.0 °F 102.9 °F 55.4 °F 20% 29.64 in 10.0 mi Calm Calm - N/A   Clear
2:55 PM 102.2 °F 100.9 °F 55.4 °F 21% 29.64 in 10.0 mi NE 4.6 mph - N/A   Clear
3:15 PM 104.0 °F 102.3 °F 53.6 °F 19% 29.63 in 10.0 mi ESE 4.6 mph - N/A   Clear
3:35 PM 104.0 °F 102.3 °F 53.6 °F 19% 29.62 in 10.0 mi South 4.6 mph - N/A   Clear
3:55 PM 104.0 °F - 51.8 °F 17% 29.62 in 10.0 mi Calm Calm - N/A   Clear
4:15 PM 104.0 °F 102.9 °F 55.4 °F 20% 29.61 in 10.0 mi SSE 6.9 mph - N/A   Clear
4:35 PM 102.2 °F - 50.0 °F 17% 29.61 in 10.0 mi SW 3.5 mph - N/A   Partly Cloudy
4:55 PM 102.2 °F 100.4 °F 53.6 °F 20% 29.60 in 10.0 mi South 6.9 mph - N/A   Partly Cloudy
5:15 PM 102.2 °F 103.6 °F 60.8 °F 26% 29.60 in 10.0 mi SE 5.8 mph - N/A   Partly Cloudy
5:35 PM 102.2 °F 101.4 °F 57.2 °F 22% 29.60 in 10.0 mi South 4.6 mph - N/A   Scattered Clouds
5:55 PM 100.4 °F 100.2 °F 59.0 °F 25% 29.59 in 10.0 mi SSW 4.6 mph - N/A   Mostly Cloudy
6:15 PM 100.4 °F - 50.0 °F 18% 29.59 in 10.0 mi WSW 8.1 mph - N/A   Mostly Cloudy
6:35 PM 98.6 °F - 46.4 °F 17% 29.59 in 10.0 mi WSW 8.1 mph - N/A   Partly Cloudy
6:55 PM 95.0 °F - 50.0 °F 22% 29.60 in 10.0 mi WSW 5.8 mph - N/A   Clear
7:15 PM 95.0 °F - 48.2 °F 20% 29.60 in 10.0 mi WSW 5.8 mph - N/A   Clear
7:35 PM 93.2 °F - 48.2 °F 21% 29.61 in 10.0 mi WNW 4.6 mph - N/A   Clear
7:55 PM 93.2 °F - 48.2 °F 21% 29.61 in 10.0 mi WNW 3.5 mph - N/A   Clear
8:15 PM 91.4 °F - 48.2 °F 23% 29.62 in 10.0 mi Calm Calm - N/A   Clear
8:35 PM 91.4 °F - 48.2 °F 23% 29.63 in 10.0 mi SW 3.5 mph - N/A   Clear
8:55 PM 89.6 °F - 50.0 °F 26% 29.63 in 10.0 mi WSW 4.6 mph - N/A   Clear
9:15 PM 89.6 °F - 50.0 °F 26% 29.64 in 10.0 mi WSW 5.8 mph - N/A   Clear
9:35 PM 87.8 °F - 50.0 °F 27% 29.64 in 10.0 mi WSW 3.5 mph - N/A   Clear
9:55 PM 87.8 °F - 50.0 °F 27% 29.65 in 10.0 mi Calm Calm - N/A   Clear
10:15 PM 84.2 °F 82.8 °F 53.6 °F 35% 29.66 in 10.0 mi SW 4.6 mph - N/A   Clear
10:35 PM 86.0 °F - 51.8 °F 31% 29.66 in 10.0 mi SW 5.8 mph - N/A   Clear
10:55 PM 84.2 °F 82.8 °F 53.6 °F 35% 29.66 in 10.0 mi Calm Calm - N/A   Clear
11:15 PM 86.0 °F - 50.0 °F 29% 29.66 in 10.0 mi Calm Calm - N/A   Clear
11:35 PM 84.2 °F - 51.8 °F 33% 29.66 in 10.0 mi North 3.5 mph - N/A   Clear
11:55 PM 84.2 °F - 50.0 °F 30% 29.66 in 10.0 mi North 3.5 mph - N/A   Clear